Muncie, IN

9:02 AM EDT on September 19, 2017 (GMT -0400)
Delaware County-Johnson

Weather History for KMIE - March, 2015

Change the Weather History Date:

Friday, March 13, 2015

  Actual Average Record
Temperature  
Mean Temperature 43 °F 38 °F  
Max Temperature 51 °F 48 °F 75 °F (2007)
Min Temperature 35 °F 29 °F 0 °F (1968)
Degree Days  
Heating Degree Days 22 27  
Month to date heating degree days 433 375  
Since 1 July heating degree days 5298 4758  
Cooling Degree Days 0 0  
Month to date cooling degree days 0 0  
Year to date cooling degree days 0 0  
Moisture  
Dew Point 41 °F    
Average Humidity 80    
Maximum Humidity 96    
Minimum Humidity 64    
Precipitation  
Precipitation 0.51 in 0.09 in 0.92 in (2003)
Month to date precipitation 1.40 1.13  
Year to date precipitation 4.34 5.67  
Sea Level Pressure  
Sea Level Pressure 30.18 in    
Wind  
Wind Speed 6 mph (SSE)    
Max Wind Speed 10 mph    
Max Gust Speed 14 mph    
Visibility 7 miles    
Events Rain    
T = Trace of Precipitation, MM = Missing Value Source: NWS Daily Summary

Daily Weather History Graph

Daily Weather History Graph

Search for Another Location

Airport or City:

Trip Planner

Search our weather history database for the weather conditions in past years. The results will help you decide how hot, cold, wet, or windy it might be!

Date:

Astronomy

Mar. 13, 2015 Rise Set
Actual Time 7:56 AM EDT 7:46 PM EDT
Civil Twilight 7:29 AM EDT 8:13 PM EDT
Nautical Twilight 6:58 AM EDT 8:44 PM EDT
Astronomical Twilight 6:26 AM EDT 9:16 PM EDT
Moon 2:27 AM EDT (3/13) 12:39 PM EDT (3/13)
Length of Visible Light 12h 43m
Length of Day
11h 49m
Waning Gibbous, 51% of the Moon is Illuminated
Mar 13
Waning Gibbous
Mar 13
Last Quarter
Mar 20
New
Mar 27
First Quarter
Apr 4
Full

Hourly Weather History & Observations

Time (EDT) Temp. Windchill Dew Point Humidity Pressure Visibility Wind Dir Wind Speed Gust Speed Precip Events Conditions
12:53 AM 37.0 °F 31.6 °F 28.9 °F 73% 30.35 in 10.0 mi ESE 6.9 mph - N/A   Clear
1:53 AM 37.0 °F 31.0 °F 30.0 °F 76% 30.33 in 10.0 mi ESE 8.1 mph - N/A   Clear
2:53 AM 39.9 °F 36.7 °F 28.9 °F 65% 30.30 in 10.0 mi ESE 4.6 mph - N/A   Clear
3:53 AM 39.9 °F - 28.0 °F 63% 30.30 in 10.0 mi North - - N/A   Clear
4:53 AM 36.0 °F 31.1 °F 28.9 °F 76% 30.27 in 10.0 mi NE 5.8 mph - N/A   Clear
5:53 AM 37.0 °F 31.6 °F 30.0 °F 76% 30.25 in 10.0 mi East 6.9 mph - N/A   Clear
6:53 AM 37.9 °F 35.5 °F 30.0 °F 73% 30.25 in 10.0 mi ESE 3.5 mph - N/A   Partly Cloudy
7:53 AM 39.0 °F - 30.0 °F 70% 30.25 in 10.0 mi Calm Calm - N/A   Overcast
8:53 AM 39.0 °F 36.8 °F 32.0 °F 76% 30.26 in 10.0 mi SE 3.5 mph - 0.00 in Rain Light Rain
9:53 AM 39.9 °F - 35.1 °F 83% 30.26 in 8.0 mi Calm Calm - 0.01 in Rain Light Rain
10:53 AM 42.1 °F 39.2 °F 39.0 °F 89% 30.25 in 5.0 mi South 4.6 mph - 0.05 in Rain Light Rain
11:53 AM 44.1 °F 40.1 °F 39.9 °F 85% 30.22 in 6.0 mi SSE 6.9 mph - 0.07 in Rain Light Rain
12:53 PM 46.0 °F 43.1 °F 43.0 °F 89% 30.20 in 5.0 mi South 5.8 mph - 0.03 in Rain Light Rain
1:12 PM 46.0 °F 43.1 °F 43.0 °F 89% 30.19 in 5.0 mi South 5.8 mph - 0.01 in Rain Light Rain
1:25 PM 46.0 °F 43.9 °F 44.1 °F 93% 30.19 in 5.0 mi South 4.6 mph - 0.02 in Rain Light Rain
1:35 PM 46.9 °F - 44.1 °F 90% 30.19 in 4.0 mi South 4.6 mph - 0.03 in Rain Light Rain
1:48 PM 46.4 °F 43.5 °F 44.6 °F 93% 30.18 in 4.0 mi SSE 5.8 mph - 0.04 in Rain Light Rain
1:53 PM 46.9 °F - 44.1 °F 90% 30.19 in 4.0 mi South 5.8 mph - 0.04 in Rain Light Rain
2:53 PM 48.9 °F - 46.9 °F 93% 30.16 in 5.0 mi South 5.8 mph - 0.02 in Rain Light Rain
3:08 PM 48.9 °F - 46.9 °F 93% 30.15 in 6.0 mi South 9.2 mph - 0.00 in Rain Light Rain
3:29 PM 50.0 °F - 48.0 °F 93% 30.14 in 5.0 mi South 8.1 mph - 0.01 in Rain Light Rain
3:45 PM 50.0 °F - 48.0 °F 93% 30.13 in 6.0 mi South 5.8 mph - 0.01 in Rain Light Rain
3:53 PM 50.0 °F - 48.0 °F 93% 30.13 in 6.0 mi SSE 4.6 mph - 0.01 in Rain Light Rain
4:53 PM 51.1 °F - 48.9 °F 92% 30.12 in 5.0 mi South 5.8 mph - 0.01 in Rain Light Rain
5:53 PM 51.1 °F - 48.9 °F 92% 30.10 in 4.0 mi South 6.9 mph - 0.01 in Rain Light Rain
6:53 PM 51.1 °F - 50.0 °F 96% 30.09 in 6.0 mi South 8.1 mph - 0.03 in Rain Light Rain
7:53 PM 50.0 °F - 48.9 °F 96% 30.08 in 6.0 mi South 9.2 mph - 0.04 in Rain Light Rain
8:53 PM 50.0 °F - 48.0 °F 93% 30.07 in 5.0 mi South 9.2 mph - 0.07 in Rain Light Rain
9:53 PM 50.0 °F - 48.0 °F 93% 30.06 in 6.0 mi South 6.9 mph - 0.06 in Rain Light Rain
10:53 PM 50.0 °F - 48.0 °F 93% 30.05 in 6.0 mi South 6.9 mph - 0.02 in Rain Light Rain
11:38 PM 48.9 °F - 48.0 °F 97% 30.03 in 6.0 mi South 6.9 mph - 0.02 in Rain Light Rain
11:53 PM 50.0 °F - 48.0 °F 93% 30.03 in 5.0 mi SSW 4.6 mph - 0.02 in Rain Light Rain